Погода в Степной Васильевке

Россия / Ульяновская область     54°03′29″N   49°30′46″E
темп.,
°C
ветер,
м/с
пор.,
м/с
влажн.,
%
обл.,
%
осадки,
мм/ч
давл.,
гПа
погр.,
м
4 декабря, сб
сб401:00+3ю71498100 0.4 1013426
04:00+3ююз91892100 1.0 1012507
07:00+3ююз10207985 0.0 1011566
10:00+3ююз122285100 0.0 1009647
13:00+3ююз112090100 0.6 1008841
16:00+3ююз81597100 3.6 1009789
19:00+2зюз4798100 2.3 1010404
22:00+1зюз4786100 2.3 1012256
5 декабря, вс
вс501:000з4681100 0.0 1012380
04:00−1зсз4680100 0.0 1014409
07:00−2зсз468030 0.0 1015303
10:00−2з46755 0.0 1016557
13:00−1зсз457069 0.0 1017762
16:00−2зсз3474100 0.0 1019195
19:00−2сз2373100 0.0 1020180
22:00−2сз1273100 0.0 1020160
6 декабря, пн
пн601:00−2сз127295 0.0 1021143
04:00−2ссз227797 0.0 102284
07:00−3св2382100 0.0 1023131
10:00−3св2380100 0.0 1024208
13:00−2всв2273100 0.0 1025356
16:00−3всв3479100 0.0 1026243
19:00−3всв358368 0.0 1028282
22:00−4всв46846 0.0 1028239
7 декабря, вт
вт701:00−4в4682100 0.0 1029256
04:00−4в47826 0.0 1030249
07:00−5в4882100 0.0 1030275
10:00−4в51077100 0.0 1031366
13:00−3вюв51169100 0.0 1030417
16:00−3вюв61268100 0.0 1029428
19:00−3юв61366100 0.0 1028436
22:00−3юв71486100 0.2 1027416
8 декабря, ср
ср801:00−1ююв61493100 2.0 1025433
04:00+1ююв61392100 2.1 1025400
07:00+2ююв51391100 0.0 1024397
10:00+2ю61487100 0.0 1025360
13:00+3ю61375100 0.0 1024402
16:00+2ююв51278100 0.0 1024319
19:00+1ююв51283100 0.0 1024327
22:000ююв51181100 0.0 1024332